Home > Weather > Wetzlar > Past weeks

Flag for Germany Past Weather in Wetzlar, Hesse, Germany — Yesterday and Last 2 Weeks

Now
45 °F

Fog.


Feels Like: 45 °F
Forecast: 53 / 71 °F
Wind: 1 mph from North

Location: Frankfurt-M-Flughafen Airport

Current Time: May 26, 2016 at 4:55:47 AM

Latest Report: May 26, 2016 at 4:20 AM


Visibility: N/A

Pressure: 30.01 "Hg

Humidity: 100%

Dew Point: 45 °F

Location of WetzlarLocation

Past Weather in Wetzlar — Graph

°F

Wetzlar Temperature Yesterday

Maximum temperature yesterday: 61 °F (at 7:50 PM)
Minimum temperature yesterday: 48 °F (at 11:50 PM)
Average temperature yesterday: 54 °F

High & Low Weather Summary for the Past Weeks

 TemperatureHumidityPressure
High81 °F (May 22, 3:20 PM)100% (May 13, 11:50 PM)30.12 "Hg (May 13, 11:50 PM)
Low41 °F (May 15, 5:50 AM)24% (May 22, 3:50 PM)29.45 "Hg (May 12, 8:20 PM)
Average57 °F68%29.89 "Hg
* Reported May 11 3:20 AM — May 26 3:20 AM, Wetzlar, Weather by CustomWeather, © 2016

Note: Actual official high and low records may vary slightly from our data, if they occured in-between our weather recording intervals... More about our weather records

Advertising

Wetzlar Weather History for the Previous 24 Hours

Scroll right to see more
 ConditionsComfort  
Time TempWeatherWind HumidityBarometerVisibility
3:20 AM
Thu, May 26
46 °FFog.2 mph93%30.01 "HgN/A
2:50 AM46 °FFog.1 mph93%30.01 "HgN/A
2:20 AM46 °FFog.2 mph100%30.01 "HgN/A
1:50 AM46 °FFog.1 mph93%30.01 "HgN/A
1:20 AM46 °FFog.No wind93%30.01 "HgN/A
12:50 AM46 °FFog.1 mph100%30.01 "HgN/A
12:20 AM48 °FFog.1 mph94%30.01 "HgN/A
11:50 PM
Wed, May 25
48 °FFog.2 mph94%30.01 "HgN/A
11:20 PM50 °FFog.1 mph94%30.01 "HgN/A
10:50 PM50 °FFog.2 mph94%30.01 "HgN/A
10:20 PM50 °FFog.1 mph94%30.01 "HgN/A
9:50 PM52 °FFog.1 mph94%30.01 "HgN/A
9:20 PM55 °FPartly sunny.3 mph82%29.98 "HgN/A
8:50 PM57 °FPartly sunny.3 mph82%29.98 "HgN/A
8:20 PM61 °FPartly sunny.2 mph68%29.98 "HgN/A
7:50 PM61 °FPartly sunny.2 mph68%29.98 "HgN/A
7:20 PM59 °FBroken clouds.3 mph72%29.98 "HgN/A
6:50 PM59 °FPartly sunny.2 mph72%29.98 "HgN/A
6:20 PM59 °FPartly sunny.2 mph72%29.98 "HgN/A
5:50 PM59 °FMore clouds than sun.3 mph72%29.98 "HgN/A
5:20 PM59 °FMore clouds than sun.5 mph68%29.98 "HgN/A
4:50 PM59 °FMore clouds than sun.2 mph72%29.98 "HgN/A
4:20 PM59 °FPartly sunny.1 mph68%29.98 "HgN/A
3:50 PM59 °FPartly sunny.2 mph68%29.98 "HgN/A
3:20 PM59 °FPartly sunny.3 mph68%29.98 "HgN/A
2:50 PM59 °FPartly sunny.1 mph68%29.98 "HgN/A
2:20 PM59 °FPartly sunny.3 mph72%29.98 "HgN/A
1:50 PM57 °FPartly sunny.3 mph72%29.98 "HgN/A
1:20 PM57 °FPartly sunny.3 mph72%29.98 "HgN/A
12:50 PM57 °FPartly sunny.3 mph72%29.98 "HgN/A
12:20 PM57 °FBroken clouds.3 mph72%29.98 "HgN/A
11:50 AM57 °FPartly sunny.2 mph72%29.98 "HgN/A
11:20 AM55 °FPartly sunny.2 mph77%29.98 "HgN/A
10:50 AM55 °FPartly sunny.3 mph77%29.98 "HgN/A
10:20 AM55 °FBroken clouds.1 mph72%29.98 "HgN/A
9:50 AM55 °FPartly sunny.2 mph77%29.98 "HgN/A
9:20 AM54 °FPartly sunny.3 mph77%29.98 "HgN/A
8:50 AM54 °FPartly sunny.3 mph82%29.98 "HgN/A
8:20 AM54 °FPartly sunny.2 mph82%29.98 "HgN/A
7:50 AM54 °FPartly sunny.2 mph82%29.98 "HgN/A
7:20 AM52 °FBroken clouds.2 mph88%29.98 "HgN/A
6:50 AM52 °FPartly sunny.2 mph88%29.98 "HgN/A
6:20 AM50 °FPassing clouds.2 mph94%29.98 "HgN/A
5:50 AM50 °FPassing clouds.1 mph94%29.98 "HgN/A
5:20 AM50 °FPartly cloudy.No wind94%29.95 "HgN/A
4:50 AM50 °FPartly cloudy.2 mph94%29.98 "HgN/A
4:20 AM50 °FPartly cloudy.2 mph94%29.98 "HgN/A
Weather by CustomWeather, © 2016

See weather overviewHow to use our weather pages